^^
Station Historical Data
 
Daily Summary for May 28, 2015 Units:  English    Metric   Both
« Previous Day
Next Day »
Daily Weekly Monthly Yearly Custom
  Current: High: Low: Average:
Temperature: 78.4 °F 78.4 °F 59.9 °F 66.9 °F
Dew Point: 53.5 °F 63.3 °F 52.0 °F 58.2 °F
Humidity: 42% 91% 41% 75%
Wind Speed: 4.2mph 4.4mph 0.0mph 2mph
Wind Gust: 6.9mph 8.3mph - -
WindSE - - SSE
Pressure: 30.29 in 30.30 in 30.16 in -
Precipitation: 0.00 in      
Historical Graphs
 
 
Tabular Data for May 28, 2015
Time Temperature Dew Point Pressure Wind Wind Speed Wind Gust Humidity Rainfall Rate (Hourly)
00:00 66.2 °F 58.4 °F 30.17 in Calm     76% 0.00 in
00:05 66.2 °F 58.4 °F 30.17 in Calm     76% 0.00 in
00:10 66.0 °F 58.2 °F 30.17 in NNW 0.2 mph 1.6 mph 76% 0.00 in
00:15 65.8 °F 58.4 °F 30.17 in West 0.9 mph 2.2 mph 77% 0.00 in
00:20 65.8 °F 58.4 °F 30.17 in West 1.1 mph 2.2 mph 77% 0.00 in
00:25 65.8 °F 58.8 °F 30.17 in West 0.7 mph 1.6 mph 78% 0.00 in
00:30 65.8 °F 58.8 °F 30.17 in West 0.6 mph 0.7 mph 78% 0.00 in
00:36 65.8 °F 58.8 °F 30.16 in WNW 0.7 mph 1.6 mph 78% 0.00 in
00:41 65.8 °F 58.8 °F 30.17 in NW 0.9 mph 1.6 mph 78% 0.00 in
00:46 65.8 °F 58.8 °F 30.17 in NW 1.1 mph 1.6 mph 78% 0.00 in
00:51 65.8 °F 58.8 °F 30.17 in NNW 1.9 mph 5.4 mph 78% 0.00 in
00:56 66.0 °F 59.0 °F 30.18 in NE 2.7 mph 5.4 mph 78% 0.00 in
01:01 66.0 °F 59.3 °F 30.17 in SSE 3.0 mph 5.4 mph 79% 0.00 in
01:06 66.0 °F 59.3 °F 30.17 in SSE 3.2 mph 5.4 mph 79% 0.00 in
01:11 66.0 °F 59.3 °F 30.18 in ESE 2.6 mph 4.5 mph 79% 0.00 in
01:16 66.0 °F 59.3 °F 30.18 in NNW 1.4 mph 4.5 mph 79% 0.00 in
01:21 66.0 °F 59.3 °F 30.17 in NE 1.3 mph 2.2 mph 79% 0.00 in
01:26 65.8 °F 59.1 °F 30.17 in NNE 1.3 mph 2.2 mph 79% 0.00 in
01:31 65.6 °F 59.0 °F 30.17 in NW 1.0 mph 2.2 mph 79% 0.00 in
01:36 65.5 °F 58.8 °F 30.18 in NNW 1.2 mph 1.6 mph 79% 0.00 in
01:41 65.3 °F 58.6 °F 30.18 in NNW 1.1 mph 1.6 mph 79% 0.00 in
01:46 65.1 °F 58.8 °F 30.18 in NW 0.8 mph 1.6 mph 80% 0.00 in
01:51 65.1 °F 58.8 °F 30.18 in NNW 1.0 mph 1.6 mph 80% 0.00 in
01:56 64.9 °F 58.6 °F 30.18 in NNW 1.2 mph 2.2 mph 80% 0.00 in
02:01 64.7 °F 58.4 °F 30.18 in NNW 1.3 mph 2.2 mph 80% 0.00 in
02:06 64.7 °F 58.4 °F 30.18 in South 1.5 mph 2.2 mph 80% 0.00 in
02:11 64.4 °F 58.4 °F 30.17 in South 1.2 mph 1.6 mph 81% 0.00 in
02:16 64.2 °F 58.3 °F 30.18 in South 0.7 mph 1.6 mph 81% 0.00 in
02:21 64.0 °F 58.1 °F 30.18 in North 0.7 mph 1.6 mph 81% 0.00 in
02:26 64.0 °F 58.4 °F 30.18 in NNW 0.5 mph 1.6 mph 82% 0.00 in
02:36 63.7 °F 58.1 °F 30.18 in NW 0.2 mph 0.7 mph 82% 0.00 in
02:41 63.5 °F 57.9 °F 30.19 in NW 0.2 mph 0.7 mph 82% 0.00 in
02:46 63.5 °F 57.9 °F 30.19 in NW 0.2 mph 0.7 mph 82% 0.00 in
02:51 63.3 °F 58.1 °F 30.18 in Calm     83% 0.00 in
02:56 63.3 °F 58.1 °F 30.18 in Calm     83% 0.00 in
03:01 63.5 °F 58.2 °F 30.19 in Calm     83% 0.00 in
03:06 63.5 °F 58.2 °F 30.18 in Calm     83% 0.00 in
03:11 63.3 °F 58.1 °F 30.18 in Calm     83% 0.00 in
03:16 62.9 °F 57.7 °F 30.18 in Calm     83% 0.00 in
03:21 62.8 °F 57.5 °F 30.19 in Calm     83% 0.00 in
03:26 62.6 °F 57.4 °F 30.19 in Calm     83% 0.00 in
03:31 62.6 °F 57.7 °F 30.19 in Calm     84% 0.00 in
03:36 62.4 °F 57.5 °F 30.19 in NE 0.4 mph 2.2 mph 84% 0.00 in
03:41 62.4 °F 57.5 °F 30.19 in NNE 1.0 mph 2.2 mph 84% 0.00 in
03:46 62.4 °F 57.5 °F 30.19 in NNE 0.8 mph 2.2 mph 84% 0.00 in
03:51 62.4 °F 57.8 °F 30.19 in NE 0.2 mph 0.7 mph 85% 0.00 in
03:56 62.2 °F 57.7 °F 30.19 in Calm     85% 0.00 in
04:01 62.2 °F 57.7 °F 30.19 in Calm     85% 0.00 in
04:06 62.2 °F 57.7 °F 30.19 in Calm     85% 0.00 in
04:11 61.9 °F 57.3 °F 30.19 in Calm     85% 0.00 in
04:16 61.7 °F 57.1 °F 30.19 in Calm     85% 0.00 in
04:21 61.5 °F 57.3 °F 30.19 in Calm     86% 0.00 in
04:26 61.5 °F 57.3 °F 30.19 in Calm     86% 0.00 in
04:31 61.3 °F 57.1 °F 30.19 in Calm     86% 0.00 in
04:36 61.1 °F 56.9 °F 30.19 in Calm     86% 0.00 in
04:41 61.1 °F 56.9 °F 30.19 in Calm     86% 0.00 in
04:46 61.0 °F 56.8 °F 30.19 in Calm     86% 0.00 in
04:51 61.0 °F 56.8 °F 30.19 in Calm     86% 0.00 in
04:56 60.8 °F 56.6 °F 30.19 in Calm     86% 0.00 in
05:01 60.8 °F 56.9 °F 30.19 in Calm     87% 0.00 in
05:06 60.8 °F 56.9 °F 30.19 in Calm     87% 0.00 in
05:11 60.8 °F 56.9 °F 30.20 in Calm     87% 0.00 in
05:22 60.4 °F 56.5 °F 30.20 in Calm     87% 0.00 in
05:27 60.4 °F 56.5 °F 30.20 in Calm     87% 0.00 in
05:32 60.2 °F 56.4 °F 30.20 in Calm     87% 0.00 in
05:37 60.2 °F 56.4 °F 30.21 in Calm     87% 0.00 in
05:42 60.1 °F 56.2 °F 30.21 in Calm     87% 0.00 in
05:47 60.1 °F 56.2 °F 30.21 in Calm     87% 0.00 in
05:52 59.9 °F 56.0 °F 30.21 in Calm     87% 0.00 in
05:57 59.9 °F 56.3 °F 30.21 in Calm     88% 0.00 in
06:02 59.9 °F 56.3 °F 30.21 in Calm     88% 0.00 in
06:07 59.9 °F 56.3 °F 30.22 in Calm     88% 0.00 in
06:12 60.1 °F 56.8 °F 30.22 in North 0.1 mph 0.7 mph 89% 0.00 in
06:17 60.4 °F 57.2 °F 30.22 in North 0.1 mph 0.7 mph 89% 0.00 in
06:22 60.6 °F 57.7 °F 30.23 in Calm     90% 0.00 in
06:27 60.8 °F 57.8 °F 30.23 in Calm     90% 0.00 in
06:32 60.8 °F 57.8 °F 30.23 in Calm     90% 0.00 in
06:37 60.6 °F 57.7 °F 30.23 in Calm     90% 0.00 in
06:42 60.4 °F 57.5 °F 30.23 in Calm     90% 0.00 in
06:47 60.2 °F 57.3 °F 30.24 in Calm     90% 0.00 in
06:52 60.2 °F 57.3 °F 30.24 in Calm     90% 0.00 in
06:57 60.2 °F 57.3 °F 30.24 in Calm     90% 0.00 in
07:02 60.2 °F 57.3 °F 30.24 in Calm     90% 0.00 in
07:07 60.2 °F 57.3 °F 30.24 in Calm     90% 0.00 in
07:12 60.4 °F 57.5 °F 30.24 in Calm     90% 0.00 in
07:17 60.6 °F 57.7 °F 30.24 in SE 0.1 mph 0.7 mph 90% 0.00 in
07:22 60.6 °F 57.7 °F 30.25 in South 0.6 mph 1.6 mph 90% 0.00 in
07:27 60.8 °F 57.8 °F 30.25 in South 0.8 mph 1.6 mph 90% 0.00 in
07:32 61.0 °F 58.0 °F 30.25 in South 0.7 mph 1.6 mph 90% 0.00 in
07:37 61.5 °F 58.9 °F 30.25 in South 0.4 mph 1.6 mph 91% 0.00 in
07:42 62.0 °F 59.4 °F 30.26 in Calm     91% 0.00 in
07:47 62.4 °F 59.8 °F 30.26 in Calm     91% 0.00 in
07:52 62.9 °F 60.3 °F 30.26 in Calm     91% 0.00 in
07:57 63.5 °F 60.8 °F 30.25 in Calm     91% 0.00 in
08:02 63.8 °F 61.2 °F 30.25 in Calm     91% 0.00 in
08:07 64.7 °F 62.1 °F 30.26 in South 0.2 mph 2.2 mph 91% 0.00 in
08:12 65.5 °F 62.5 °F 30.26 in SSE 1.1 mph 2.2 mph 90% 0.00 in
08:17 66.4 °F 63.0 °F 30.26 in SE 2.0 mph 3.1 mph 89% 0.00 in
08:22 66.9 °F 63.3 °F 30.26 in East 2.2 mph 3.8 mph 88% 0.00 in
08:27 67.4 °F 63.1 °F 30.26 in NNE 2.4 mph 3.8 mph 86% 0.00 in
08:32 67.8 °F 62.5 °F 30.27 in East 2.9 mph 4.5 mph 83% 0.00 in
08:37 68.0 °F 62.3 °F 30.27 in SSE 3.1 mph 4.5 mph 82% 0.00 in
08:42 68.0 °F 61.6 °F 30.27 in SE 2.5 mph 4.5 mph 80% 0.00 in
08:47 68.2 °F 61.8 °F 30.27 in ENE 2.4 mph 3.8 mph 80% 0.00 in
08:52 68.2 °F 61.1 °F 30.28 in ESE 2.6 mph 3.8 mph 78% 0.00 in
08:57 68.2 °F 61.1 °F 30.28 in SE 2.1 mph 3.8 mph 78% 0.00 in
09:02 68.2 °F 61.1 °F 30.28 in ESE 2.3 mph 3.8 mph 78% 0.00 in
09:07 68.2 °F 61.1 °F 30.28 in SE 2.5 mph 3.8 mph 78% 0.00 in
09:12 68.5 °F 61.4 °F 30.28 in ESE 3.3 mph 5.4 mph 78% 0.00 in
09:17 69.1 °F 61.6 °F 30.28 in East 3.7 mph 5.4 mph 77% 0.00 in
09:22 69.6 °F 61.7 °F 30.28 in East 3.5 mph 6.0 mph 76% 0.00 in
09:27 70.0 °F 61.7 °F 30.28 in ESE 3.7 mph 6.0 mph 75% 0.00 in
09:32 70.3 °F 61.7 °F 30.28 in SE 3.6 mph 6.0 mph 74% 0.00 in
09:37 70.7 °F 61.6 °F 30.28 in ESE 4.0 mph 6.0 mph 73% 0.00 in
09:43 70.9 °F 61.4 °F 30.28 in East 4.0 mph 6.0 mph 72% 0.00 in
09:48 71.6 °F 62.1 °F 30.28 in ESE 3.6 mph 4.5 mph 72% 0.00 in
09:52 72.7 °F 62.3 °F 30.29 in ESE 3.6 mph 4.5 mph 70% 0.00 in
09:58 72.8 °F 61.7 °F 30.28 in ESE 3.6 mph 4.5 mph 68% 0.00 in
10:03 72.8 °F 61.3 °F 30.28 in ESE 2.8 mph 4.5 mph 67% 0.00 in
10:08 72.3 °F 60.8 °F 30.28 in SE 2.2 mph 3.8 mph 67% 0.00 in
10:13 72.7 °F 61.5 °F 30.27 in SE 1.9 mph 3.1 mph 68% 0.00 in
10:18 72.8 °F 60.8 °F 30.28 in SE 2.4 mph 3.8 mph 66% 0.00 in
10:23 72.3 °F 59.5 °F 30.28 in SSW 2.7 mph 3.8 mph 64% 0.00 in
10:28 71.9 °F 59.6 °F 30.28 in NNW 1.8 mph 3.1 mph 65% 0.00 in
10:33 72.1 °F 59.3 °F 30.28 in SSE 1.7 mph 3.1 mph 64% 0.00 in
10:38 72.5 °F 60.5 °F 30.28 in ESE 2.8 mph 3.8 mph 66% 0.00 in
10:43 72.7 °F 59.4 °F 30.28 in ESE 2.6 mph 3.8 mph 63% 0.00 in
10:48 72.5 °F 58.8 °F 30.29 in NW 2.0 mph 3.1 mph 62% 0.00 in
10:53 72.7 °F 59.8 °F 30.28 in North 2.6 mph 4.5 mph 64% 0.00 in
10:58 73.6 °F 60.2 °F 30.28 in East 2.6 mph 4.5 mph 63% 0.00 in
11:03 73.7 °F 59.5 °F 30.29 in NE 2.3 mph 3.1 mph 61% 0.00 in
11:08 74.1 °F 58.9 °F 30.28 in NNW 2.4 mph 5.4 mph 59% 0.00 in
11:13 73.6 °F 57.9 °F 30.29 in NNW 2.9 mph 5.4 mph 58% 0.00 in
11:18 73.4 °F 58.2 °F 30.29 in North 2.4 mph 5.4 mph 59% 0.00 in
11:23 73.2 °F 57.6 °F 30.28 in West 1.7 mph 3.8 mph 58% 0.00 in
11:28 73.4 °F 57.3 °F 30.28 in South 1.7 mph 3.8 mph 57% 0.00 in
11:33 73.6 °F 56.9 °F 30.28 in East 2.3 mph 4.5 mph 56% 0.00 in
11:38 73.4 °F 56.3 °F 30.28 in East 2.9 mph 4.5 mph 55% 0.00 in
11:43 73.6 °F 57.9 °F 30.28 in SE 1.9 mph 3.8 mph 58% 0.00 in
11:48 74.1 °F 58.9 °F 30.28 in NE 1.6 mph 3.8 mph 59% 0.00 in
11:53 75.2 °F 57.9 °F 30.29 in East 2.0 mph 3.8 mph 55% 0.00 in
11:58 75.2 °F 56.4 °F 30.29 in West 2.0 mph 3.8 mph 52% 0.00 in
12:03 75.4 °F 57.1 °F 30.28 in NE 2.0 mph 3.8 mph 53% 0.00 in
12:08 76.8 °F 56.8 °F 30.28 in East 1.9 mph 3.8 mph 50% 0.00 in
12:13 76.8 °F 56.2 °F 30.28 in NE 2.0 mph 3.1 mph 49% 0.00 in
12:18 76.8 °F 55.1 °F 30.28 in East 2.9 mph 5.4 mph 47% 0.00 in
12:23 76.3 °F 55.2 °F 30.28 in ESE 2.4 mph 5.4 mph 48% 0.00 in
12:28 76.4 °F 54.8 °F 30.29 in East 1.9 mph 3.1 mph 47% 0.00 in
12:33 76.3 °F 53.4 °F 30.28 in East 2.8 mph 4.5 mph 45% 0.00 in
12:38 76.1 °F 53.8 °F 30.28 in East 3.3 mph 4.5 mph 46% 0.00 in
12:43 75.5 °F 54.5 °F 30.29 in North 3.0 mph 4.5 mph 48% 0.00 in
12:48 75.4 °F 54.9 °F 30.29 in North 3.0 mph 6.0 mph 49% 0.00 in
12:53 75.7 °F 55.2 °F 30.29 in East 3.1 mph 6.0 mph 49% 0.00 in
12:58 76.4 °F 54.2 °F 30.29 in SE 2.7 mph 3.8 mph 46% 0.00 in
13:03 76.6 °F 53.7 °F 30.29 in SSW 2.3 mph 3.8 mph 45% 0.00 in
13:08 76.3 °F 52.8 °F 30.29 in West 2.2 mph 2.2 mph 44% 0.00 in
13:13 76.1 °F 52.0 °F 30.29 in SW 2.6 mph 4.5 mph 43% 0.00 in
13:18 76.4 °F 53.6 °F 30.30 in ESE 4.0 mph 8.3 mph 45% 0.00 in
13:23 77.0 °F 53.4 °F 30.30 in East 4.4 mph 8.3 mph 44% 0.00 in
13:28 77.3 °F 53.1 °F 30.29 in NE 3.6 mph 5.4 mph 43% 0.00 in
13:33 77.5 °F 52.7 °F 30.30 in NE 3.1 mph 5.4 mph 42% 0.00 in
13:38 77.9 °F 52.3 °F 30.29 in SE 3.2 mph 5.4 mph 41% 0.00 in
13:43 78.4 °F 53.5 °F 30.29 in SE 4.2 mph 6.9 mph 42% 0.00 in
Export, Pennsylvania, USA
Compliments of Weather Underground